Location: Brad
(46.1333°N, 22.7833°E)
Time: 04:10:38
(UTC+00:00)

Atlas Centaur 2 - Pass Details

Date: 03 February 2023
Orbit: 459 x 1295 km, 30.4° (Epoch: 29 March)

Event Time Altitude Azimuth Distance (km) Brightness Sun altitude
Rises 18:08:27 0° 236° (SW) 4,157 6.5 -26.5°
Reaches altitude 10° 18:11:53 10° 224° (SW) 3,256 5.7 -27.1°
Maximum altitude 18:18:19 25° 173° (S) 2,351 4.3 -28.3°
Enters shadow 18:19:22 24° 162° (SSE) 2,380 4.3 -28.4°
